Temp
-6 -7 -8 -8 -8 -7 -7 -7 -7 -7 -7 -6 -7 -7 -7 -8 -8 -8 -7 -7 -7 -7 -7 -8 -8 -8 -8 -8 -8 -9 -9 -9 -8 -8 -7 -7 -7 -6 -7 -7 -7 -7 -7 -7
-6 -6 -8 -8 -8 -7 -7 -7 -7 -7 -7 -7 -7 -7 -7 -8 -8 -8 -8 -7 -7 -7 -7 -7 -8 -8 -8 -8 -8 -9 -9 -9 -8 -8 -8 -8 -7 -8 -7 -8 -7 -7 -7 -7
-7 -8 -8 -7 -7 -7 -8 -8 -7 -7 -7 -7 -7 -7 -7 -8 -7 -7 -8 -7 -7 -8 -7 -8 -8 -8 -8 -8 -8 -9 -10 -9 -9 -8 -9 -9 -8 -8 -8 -8 -8 -8 -8 -7
-7 -8 -7 -7 -7 -7 -8 -8 -8 -7 -7 -7 -7 -6 -8 -7 -8 -8 -8 -7 -8 -8 -8 -7 -8 -8 -8 -8 -8 -9 -9 -9 -9 -9 -8 -9 -9 -9 -9 -8 -9 -8 -8 -8
-7 -7 -6 -7 -6 -7 -8 -8 -8 -8 -7 -7 -6 -6 -6 -7 -7 -8 -8 -8 -8 -8 -7 -8 -8 -8 -8 -8 -9 -9 -9 -9 -9 -9 -8 -8 -8 -9 -9 -9 -10 -9 -8 -7
-8 -6 -7 -7 -7 -7 -8 -7 -7 -8 -7 -7 -7 -7 -6 -6 -7 -8 -7 -8 -7 -8 -8 -8 -9 -8 -9 -9 -9 -9 -9 -9 -9 -9 -9 -8 -8 -9 -9 -9 -9 -8 -8 -7
-7 -7 -7 -7 -7 -7 -7 -8 -8 -7 -7 -6 -7 -7 -7 -7 -7 -7 -7 -7 -8 -8 -8 -9 -9 -9 -9 -9 -9 -9 -9 -9 -10 -9 -9 -9 -8 -9 -9 -9 -9 -8 -8 -7
-8 -8 -7 -7 -7 -8 -7 -8 -7 -6 -6 -6 -7 -7 -7 -7 -7 -7 -7 -8 -7 -8 -9 -9 -9 -8 -9 -9 -9 -9 -9 -9 -9 -10 -10 -9 -8 -8 -9 -9 -8 -8 -8 -7
-9 -9 -9 -7 -7 -8 -8 -7 -8 -7 -7 -7 -6 -7 -8 -7 -7 -7 -7 -8 -8 -8 -9 -9 -8 -8 -9 -9 -9 -9 -9 -9 -9 -9 -9 -9 -8 -8 -8 -9 -8 -8 -8 -7
-9 -9 -9 -8 -7 -7 -8 -8 -8 -8 -7 -7 -6 -7 -8 -8 -9 -7 -7 -8 -8 -9 -9 -9 -9 -9 -9 -9 -9 -9 -9 -9 -10 -10 -10 -9 -7 -8 -8 -8 -8 -8 -8 -7
-8 -8 -8 -9 -7 -8 -8 -8 -8 -7 -8 -7 -8 -7 -8 -8 -9 -8 -8 -8 -8 -8 -8 -9 -9 -9 -9 -9 -9 -10 -9 -9 -9 -10 -10 -8 -8 -8 -8 -9 -9 -8 -8 -8
-8 -9 -9 -9 -9 -8 -9 -9 -9 -8 -8 -8 -7 -8 -9 -9 -7 -8 -8 -8 -8 -9 -9 -9 -9 -9 -9 -9 -9 -10 -9 -9 -9 -10 -10 -11 -9 -9 -9 -10 -9 -9 -8 -8
-9 -9 -9 -9 -9 -8 -8 -8 -9 -9 -9 -8 -8 -8 -8 -8 -8 -8 -8 -9 -9 -9 -9 -9 -9 -9 -9 -9 -9 -10 -10 -10 -9 -10 -10 -10 -9 -9 -10 -9 -9 -8 -8 -8
-9 -10 -9 -8 -9 -8 -9 -8 -9 -9 -9 -8 -8 -9 -9 -9 -9 -8 -8 -9 -9 -9 -9 -9 -9 -9 -9 -9 -9 -10 -11 -10 -10 -10 -9 -9 -10 -9 -9 -9 -8 -8 -8 -8
-9 -9 -9 -8 -9 -9 -8 -9 -9 -9 -8 -9 -8 -9 -10 -9 -9 -9 -9 -9 -9 -9 -9 -9 -9 -9 -9 -9 -9 -9 -11 -10 -10 -10 -9 -9 -9 -9 -9 -9 -9 -8 -8 -8
-10 -10 -9 -9 -9 -10 -9 -9 -9 -9 -9 -9 -9 -10 -8 -10 -9 -9 -9 -9 -9 -9 -9 -9 -9 -9 -9 -9 -9 -9 -10 -11 -10 -10 -10 -10 -9 -9 -9 -9 -9 -9 -9 -9
-10 -10 -10 -9 -10 -10 -10 -10 -9 -10 -10 -9 -9 -9 -9 -10 -10 -10 -10 -10 -10 -9 -9 -9 -9 -9 -9 -9 -9 -10 -10 -10 -10 -10 -10 -10 -9 -9 -8 -8 -9 -8 -9 -9
-11 -11 -10 -10 -10 -10 -10 -10 -10 -10 -10 -10 -9 -10 -10 -10 -10 -10 -10 -10 -10 -10 -10 -10 -10 -9 -9 -9 -10 -10 -10 -10 -10 -10 -10 -10 -9 -9 -9 -9 -9 -9 -9 -9
-11 -11 -11 -11 -10 -10 -10 -10 -10 -10 -10 -10 -9 -10 -10 -10 -10 -10 -9 -10 -10 -10 -10 -10 -10 -10 -10 -10 -10 -10 -11 -11 -10 -10 -10 -10 -10 -9 -9 -9 -10 -9 -9 -8
-11 -11 -11 -11 -11 -11 -10 -10 -10 -10 -10 -10 -10 -10 -10 -10 -11 -10 -10 -10 -10 -10 -10 -10 -10 -10 -10 -10 -10 -10 -11 -11 -11 -11 -10 -10 -11 -10 -10 -9 -9 -9 -9 -9
-12 -11 -11 -11 -10 -10 -11 -10 -10 -10 -10 -10 -10 -10 -10 -11 -10 -10 -11 -10 -10 -10 -10 -10 -10 -10 -10 -10 -10 -10 -10 -11 -10 -10 -10 -10 -10 -10 -11 -10 -10 -10 -9 -9
-12 -12 -12 -11 -10 -11 -10 -10 -11 -11 -11 -11 -11 -11 -11 -11 -11 -10 -10 -10 -10 -10 -10 -10 -10 -10 -11 -10 -10 -10 -10 -10 -10 -10 -10 -10 -10 -10 -10 -10 -10 -10 -10 -10
-13 -11 -12 -12 -10 -11 -11 -11 -11 -11 -11 -11 -11 -11 -11 -11 -11 -11 -11 -10 -11 -10 -10 -10 -10 -10 -10 -11 -11 -10 -10 -10 -10 -10 -10 -10 -10 -10 -10 -10 -10 -10 -10 -10
-13 -13 -12 -12 -12 -12 -12 -12 -12 -12 -11 -11 -11 -11 -11 -11 -11 -11 -11 -11 -11 -11 -10 -10 -10 -11 -10 -11 -11 -11 -11 -11 -11 -11 -10 -10 -10 -10 -10 -10 -10 -10 -10 -10
-12 -13 -13 -12 -12 -12 -12 -12 -12 -12 -12 -12 -12 -12 -12 -12 -11 -12 -11 -11 -11 -11 -10 -11 -10 -11 -11 -11 -11 -11 -11 -11 -11 -11 -11 -11 -10 -10 -10 -10 -10 -10 -10 -10
-14 -13 -13 -14 -13 -13 -12 -13 -13 -13 -12 -13 -13 -13 -12 -12 -12 -12 -12 -12 -11 -11 -11 -11 -11 -11 -11 -11 -11 -11 -11 -11 -11 -11 -11 -10 -10 -10 -10 -10 -10 -10 -10 -10
Height
5927 5929 5932 5939 5944 5947 5946 5942 5948 5949 5946 5946 5949 5951 5952 5945 5945 5945 5940 5938 5934 5932 5931 5928 5926 5923 5919 5914 5910 5905 5901 5898 5893 5889 5883 5878 5873 5872 5873 5872 5875 5877 5878 5878
5925 5928 5931 5937 5937 5942 5942 5944 5946 5949 5944 5945 5949 5948 5949 5946 5945 5945 5941 5937 5934 5931 5928 5927 5925 5923 5919 5914 5910 5904 5899 5897 5894 5889 5884 5880 5876 5872 5872 5873 5873 5875 5876 5877
5922 5930 5928 5928 5933 5935 5938 5943 5947 5948 5945 5943 5946 5945 5945 5942 5941 5939 5939 5935 5932 5930 5926 5925 5924 5922 5917 5914 5909 5904 5899 5897 5894 5891 5887 5882 5879 5877 5876 5874 5874 5875 5875 5876
5920 5922 5923 5926 5929 5932 5935 5940 5941 5943 5943 5946 5944 5946 5938 5943 5939 5936 5935 5933 5930 5929 5926 5923 5922 5920 5917 5912 5908 5904 5899 5897 5894 5891 5888 5885 5882 5880 5877 5873 5873 5873 5874 5875
5919 5919 5922 5924 5927 5929 5932 5937 5938 5938 5940 5942 5945 5945 5945 5941 5938 5937 5933 5930 5929 5927 5924 5921 5920 5918 5915 5912 5908 5904 5899 5896 5894 5889 5887 5886 5883 5880 5878 5876 5875 5874 5875 5875
5911 5914 5918 5920 5923 5925 5930 5930 5932 5934 5937 5939 5941 5942 5943 5941 5935 5933 5928 5928 5927 5924 5922 5919 5917 5915 5913 5910 5906 5903 5899 5894 5892 5888 5885 5883 5882 5879 5877 5876 5874 5874 5875 5874
5908 5911 5914 5917 5919 5922 5924 5928 5932 5935 5936 5936 5935 5936 5938 5932 5930 5930 5926 5925 5924 5921 5920 5918 5915 5913 5910 5908 5904 5901 5897 5892 5888 5885 5883 5880 5878 5877 5875 5874 5874 5875 5874 5874
5906 5909 5910 5912 5916 5919 5920 5927 5931 5934 5935 5935 5929 5931 5931 5925 5926 5924 5923 5922 5921 5920 5918 5916 5914 5911 5908 5905 5902 5898 5894 5889 5885 5881 5878 5874 5872 5872 5872 5870 5871 5873 5873 5873
5906 5906 5908 5907 5911 5916 5919 5919 5927 5929 5929 5929 5930 5927 5924 5922 5921 5921 5920 5920 5919 5917 5915 5913 5912 5909 5906 5903 5900 5896 5891 5886 5882 5878 5873 5867 5866 5864 5864 5865 5866 5870 5871 5871
5900 5901 5904 5904 5907 5910 5914 5919 5921 5923 5926 5927 5927 5923 5923 5919 5919 5917 5917 5917 5916 5914 5913 5910 5908 5906 5903 5900 5897 5893 5889 5882 5878 5873 5865 5854 5850 5858 5859 5860 5863 5867 5869 5869
5893 5897 5905 5901 5903 5907 5909 5912 5917 5922 5918 5922 5918 5918 5913 5916 5915 5914 5914 5914 5913 5911 5910 5908 5906 5903 5900 5897 5894 5889 5886 5880 5875 5869 5859 5844 5847 5852 5854 5856 5860 5864 5865 5866
5889 5892 5896 5899 5899 5901 5908 5910 5911 5914 5918 5918 5916 5917 5909 5911 5912 5911 5911 5910 5910 5909 5908 5907 5904 5901 5898 5895 5890 5887 5883 5879 5875 5869 5861 5856 5846 5850 5851 5854 5859 5860 5862 5863
5882 5885 5890 5894 5899 5897 5899 5903 5907 5910 5910 5911 5915 5917 5909 5908 5908 5907 5907 5907 5907 5907 5906 5904 5902 5898 5895 5891 5887 5883 5880 5877 5873 5869 5864 5860 5857 5855 5855 5858 5858 5858 5858 5860
5876 5879 5882 5891 5896 5899 5895 5896 5899 5902 5905 5908 5909 5905 5902 5903 5905 5904 5904 5904 5904 5904 5903 5901 5898 5895 5891 5887 5884 5879 5875 5873 5870 5868 5864 5861 5861 5859 5858 5857 5857 5857 5857 5856
5868 5871 5875 5882 5885 5890 5893 5893 5893 5895 5898 5903 5902 5893 5893 5892 5898 5901 5901 5901 5901 5900 5899 5898 5895 5891 5888 5883 5880 5875 5871 5868 5866 5864 5859 5858 5857 5857 5856 5855 5855 5855 5856 5855
5861 5865 5870 5873 5878 5882 5885 5889 5890 5890 5893 5895 5887 5887 5882 5882 5892 5896 5897 5897 5897 5896 5895 5894 5891 5888 5883 5881 5877 5872 5869 5866 5864 5861 5859 5856 5855 5854 5853 5851 5851 5852 5852 5852
5854 5859 5863 5866 5872 5875 5877 5881 5885 5885 5888 5891 5892 5881 5881 5881 5891 5892 5892 5892 5891 5891 5890 5889 5887 5885 5880 5878 5874 5871 5867 5864 5861 5859 5856 5854 5851 5848 5847 5846 5846 5847 5848 5849
5847 5852 5857 5861 5865 5866 5872 5875 5879 5880 5883 5886 5881 5881 5883 5885 5887 5888 5886 5886 5886 5886 5885 5883 5882 5880 5877 5875 5871 5869 5865 5862 5860 5857 5854 5850 5846 5844 5841 5841 5841 5841 5843 5844
5841 5846 5851 5854 5859 5864 5864 5865 5870 5875 5877 5877 5866 5873 5876 5880 5881 5882 5881 5880 5880 5880 5879 5878 5876 5875 5873 5871 5868 5866 5862 5860 5859 5855 5852 5849 5845 5844 5841 5840 5839 5838 5839 5836
5835 5840 5844 5851 5852 5854 5860 5856 5861 5867 5868 5865 5867 5870 5872 5875 5872 5872 5872 5867 5872 5873 5873 5872 5871 5869 5868 5867 5864 5862 5860 5858 5856 5854 5850 5847 5845 5842 5840 5838 5838 5837 5836 5835
5827 5833 5836 5843 5847 5848 5834 5842 5851 5856 5861 5857 5861 5863 5866 5866 5867 5855 5858 5863 5865 5867 5868 5867 5865 5864 5862 5861 5860 5858 5857 5855 5853 5851 5848 5845 5843 5842 5839 5837 5836 5836 5835 5835
5821 5827 5833 5838 5833 5832 5833 5836 5834 5844 5847 5850 5851 5851 5857 5859 5859 5858 5856 5858 5861 5862 5861 5860 5860 5858 5858 5856 5855 5854 5852 5850 5848 5846 5845 5843 5841 5840 5838 5836 5835 5834 5833 5833
5814 5816 5819 5820 5815 5806 5816 5830 5831 5837 5842 5844 5847 5849 5850 5852 5853 5853 5853 5854 5855 5855 5855 5853 5853 5853 5852 5850 5849 5849 5847 5846 5844 5842 5840 5839 5837 5836 5834 5832 5831 5831 5829 5830
5803 5809 5812 5814 5813 5815 5814 5820 5823 5830 5835 5837 5839 5841 5842 5844 5844 5844 5846 5846 5847 5847 5847 5846 5846 5844 5844 5844 5843 5843 5842 5840 5839 5838 5836 5835 5833 5831 5829 5829 5827 5827 5827 5825
5785 5798 5799 5803 5805 5808 5810 5814 5819 5824 5826 5828 5830 5832 5833 5834 5836 5836 5837 5837 5837 5839 5838 5838 5838 5837 5837 5836 5836 5835 5834 5833 5832 5831 5829 5828 5827 5826 5825 5824 5822 5821 5821 5820
5782 5783 5787 5789 5791 5797 5801 5808 5811 5814 5815 5817 5820 5822 5824 5825 5827 5826 5826 5828 5828 5829 5829 5829 5829 5828 5828 5828 5828 5826 5825 5824 5822 5821 5820 5819 5819 5818 5817 5816 5816 5815 5815 5813
Wind_Speed
23 24 22 17 16 18 17 12 13 9 14 13 8 9 10 14 9 11 9 14 18 16 13 18 18 21 23 24 27 26 24 24 25 26 23 16 9 6 9 8 12 9 9 12
24 25 20 17 24 24 23 15 11 12 14 13 9 8 7 14 11 9 14 15 15 13 13 15 15 18 23 27 29 26 26 25 19 22 24 23 18 6 5 9 9 10 14 12
23 11 21 30 26 23 17 14 12 13 13 10 10 10 15 11 14 12 10 15 10 11 18 15 17 19 24 25 27 27 22 13 16 19 19 20 21 10 4 7 8 9 12 13
23 21 25 20 22 19 16 14 15 16 13 6 14 7 12 10 14 17 11 9 9 15 20 19 18 20 22 23 27 25 20 18 18 18 20 16 18 14 16 8 8 5 5 4
20 24 20 19 18 17 12 13 17 14 13 12 13 11 6 21 19 9 14 8 13 15 17 18 20 21 22 23 27 22 23 23 20 19 18 19 17 16 7 9 7 5 2 3
25 23 22 21 19 20 14 18 13 12 11 14 14 14 12 14 16 15 17 10 13 16 16 19 21 23 22 24 23 24 26 27 22 22 20 20 19 17 5 6 4 4 4 5
25 22 22 21 21 17 18 13 8 9 10 13 17 16 12 21 29 26 18 11 13 18 16 20 22 23 23 20 23 25 27 27 22 21 22 24 24 14 8 6 8 5 4 5
19 21 24 23 20 16 17 16 12 10 13 15 22 21 12 24 18 19 14 12 14 16 17 21 21 21 19 21 23 27 27 24 21 24 27 27 27 24 22 10 9 9 6 5
14 19 19 24 21 20 16 20 14 18 18 18 12 13 13 20 18 15 11 12 14 15 18 22 18 15 19 22 27 27 28 23 23 28 32 34 35 25 14 13 12 11 8 6
17 18 19 20 23 24 22 17 17 15 13 15 12 17 11 19 9 10 12 12 13 14 17 18 13 16 22 26 28 29 27 24 24 30 36 38 13 10 8 9 11 11 10 6
26 22 15 19 24 21 23 23 19 15 15 13 16 15 19 19 14 14 13 13 11 13 16 16 14 19 26 26 27 29 29 29 25 31 37 4 14 9 7 10 12 11 10 8
25 23 22 16 18 20 18 19 20 18 17 17 20 11 4 13 16 15 16 15 12 10 12 14 18 22 24 26 28 29 30 28 23 26 30 26 15 8 13 12 9 9 9 9
27 30 23 24 18 23 25 21 21 19 20 21 16 14 27 25 20 18 18 13 9 9 12 15 18 23 26 28 30 32 31 26 24 23 19 17 12 6 3 6 8 9 9 10
31 27 30 20 17 20 27 24 23 23 20 18 17 22 27 23 19 19 18 15 13 12 15 18 19 23 27 30 32 30 28 24 22 21 20 12 11 7 6 7 9 10 10 10
31 35 32 29 26 14 17 21 19 24 21 19 21 26 22 20 17 17 15 15 15 16 17 18 18 22 26 30 27 24 23 18 16 17 15 9 9 10 11 11 12 14 13 11
32 32 29 32 33 23 21 20 22 22 21 17 27 21 41 14 16 19 18 20 17 17 17 16 18 20 27 27 19 20 14 10 15 15 14 13 13 16 18 15 17 17 14 13
34 31 31 32 25 25 29 23 21 19 22 23 21 34 25 5 21 24 22 16 13 14 17 20 21 21 27 24 19 16 13 13 12 15 15 17 18 19 18 19 18 20 17 16
36 32 29 26 23 28 27 24 24 23 20 19 32 32 34 20 27 26 21 18 16 16 19 22 22 23 23 21 19 17 17 15 11 12 13 22 15 6 9 14 16 16 16 17
35 32 27 25 24 23 28 32 31 26 24 24 32 31 27 30 33 28 26 20 16 18 20 22 21 21 19 16 15 14 15 4 11 13 13 17 21 8 3 5 0 3 8 14
37 32 32 24 26 29 25 30 31 27 31 41 33 32 34 33 26 25 18 17 14 16 19 19 18 19 19 17 14 14 13 12 15 14 14 14 18 15 2 3 4 5 8 7
32 34 32 30 27 36 38 40 27 30 31 35 35 35 34 25 28 26 15 17 21 21 21 22 21 19 21 21 19 17 16 15 16 14 15 14 14 15 15 9 9 11 13 7
26 29 27 28 36 36 46 44 26 29 31 34 33 24 26 27 28 31 27 26 27 25 25 25 25 26 22 24 24 23 22 20 22 17 14 14 15 15 14 14 11 11 9 10
33 34 37 36 42 40 49 45 34 27 30 32 32 32 32 33 33 35 32 31 29 29 29 27 27 28 28 28 26 26 26 24 25 23 20 16 15 18 17 17 17 13 15 12
44 42 42 40 50 24 15 20 22 28 31 32 34 36 37 37 38 38 36 38 36 32 32 30 28 29 30 31 30 29 30 27 25 24 24 24 20 18 18 20 21 19 19 19
23 52 49 52 51 44 46 39 39 36 36 37 38 38 39 43 39 38 44 42 39 39 37 32 30 31 32 32 31 31 31 32 31 29 29 27 27 24 21 22 23 23 23 23
28 35 38 52 53 54 52 46 41 44 49 41 46 38 36 38 39 33 34 37 36 33 32 31 31 32 32 32 31 30 31 34 34 36 38 36 33 30 26 24 25 27 28 27
Wind_Direction
200 199 205 203 217 214 250 282 214 240 252 244 242 253 251 272 276 292 335 333 322 328 344 341 339 334 339 337 335 334 340 343 346 357 357 359 9 210 235 229 212 238 242 264
208 207 206 214 213 223 227 239 247 253 255 234 248 238 237 233 268 283 301 322 320 313 331 342 335 329 332 339 338 334 325 328 342 1 6 13 1 345 229 226 237 225 224 253
204 216 220 216 216 223 227 231 241 240 263 237 239 252 245 275 299 292 299 311 317 321 327 330 327 326 331 340 349 339 326 350 346 354 16 17 5 20 284 216 202 219 243 244
202 209 220 214 215 224 231 245 232 233 239 266 256 290 253 267 294 294 304 319 305 313 313 325 320 323 334 332 336 349 345 344 345 343 354 3 16 357 6 45 78 86 60 152
217 220 218 221 219 222 213 224 231 234 241 240 252 271 239 289 296 262 283 307 297 307 318 321 319 324 331 326 331 337 342 335 334 331 341 349 344 359 337 339 29 36 5 309
220 222 219 220 221 224 210 224 233 239 244 250 263 246 251 272 251 274 292 297 301 305 310 318 316 321 325 326 329 337 339 330 324 322 334 334 337 341 316 311 313 325 274 234
229 232 231 226 229 230 228 223 236 256 266 269 244 246 235 255 248 268 282 294 285 294 309 310 310 319 322 334 335 338 338 330 327 322 320 322 324 318 322 287 270 274 270 234
239 240 234 231 228 239 235 210 222 237 261 259 269 276 257 249 275 269 274 269 280 289 299 299 307 319 338 338 337 338 337 333 326 318 315 315 315 304 303 244 234 244 252 249
227 227 255 235 224 217 244 224 225 246 248 242 258 274 262 268 273 267 265 255 276 293 292 297 313 324 331 333 337 333 335 328 319 317 315 308 304 298 278 218 203 227 251 251
220 211 230 235 228 228 210 232 223 234 243 245 265 234 258 263 244 260 257 261 273 278 285 297 309 318 323 332 337 336 332 324 322 318 319 313 281 267 189 189 179 221 237 247
223 228 226 228 235 231 227 232 217 224 250 235 258 270 214 234 229 253 254 252 256 274 300 308 314 316 318 325 330 327 330 330 327 332 331 341 158 224 239 179 176 221 231 243
224 228 203 237 244 233 217 241 234 233 250 244 242 279 229 265 262 251 253 248 260 280 303 310 317 320 321 325 323 316 326 325 331 337 341 359 43 88 123 135 202 224 234 238
219 224 229 221 233 236 233 226 220 233 237 229 243 253 261 261 248 238 247 255 261 278 302 317 330 328 324 324 316 313 315 319 319 325 335 347 6 59 94 224 226 228 236 243
222 220 222 220 236 246 269 242 235 235 231 241 237 249 258 253 247 232 245 260 275 290 303 319 328 329 324 321 324 314 313 317 316 318 325 312 316 318 290 265 260 250 248 246
225 228 229 215 212 230 230 242 241 234 230 227 249 225 223 208 239 237 252 272 296 294 295 309 322 329 332 325 328 328 319 319 318 326 334 294 281 289 286 279 275 267 256 253
227 229 228 228 219 227 238 234 231 238 230 224 247 271 268 282 255 248 254 276 295 291 292 296 312 326 326 326 327 336 340 350 322 334 334 314 298 294 290 282 271 269 267 266
229 231 229 232 233 232 237 227 237 235 224 236 241 256 269 258 265 262 261 273 292 292 290 293 304 312 316 322 320 323 322 318 331 332 334 334 306 299 297 282 275 261 257 255
230 233 232 232 234 234 236 236 228 234 233 230 240 241 256 257 266 273 264 282 287 287 287 295 304 309 306 314 316 326 321 304 325 328 342 351 344 337 312 285 280 271 253 264
227 229 229 227 226 234 237 224 215 219 229 230 235 245 258 260 263 256 271 273 285 286 284 289 299 300 294 304 307 315 331 334 326 332 339 350 355 310 352 8 2 240 304 277
226 225 224 229 216 228 239 245 238 220 227 241 246 253 260 265 258 264 253 270 288 288 281 281 285 287 287 284 290 306 306 321 313 318 322 328 330 345 328 274 276 285 332 347
226 219 222 218 230 238 221 224 223 222 227 239 243 250 257 262 273 272 280 280 282 285 287 285 280 275 278 282 281 281 286 292 296 300 306 309 318 319 325 330 328 312 296 335
223 226 218 225 228 231 240 244 196 210 220 233 236 227 236 248 257 264 272 278 280 281 290 289 284 280 275 280 284 285 277 274 279 287 291 297 301 301 300 293 289 300 305 322
206 207 204 215 229 238 222 238 224 223 228 233 241 245 246 250 255 259 261 270 278 285 286 284 286 281 278 277 281 284 285 284 281 282 283 279 279 281 280 284 286 287 287 290
217 210 214 223 214 229 219 236 212 219 227 238 242 246 252 255 258 261 265 271 275 279 286 281 282 277 275 273 274 279 282 282 283 285 282 280 274 272 275 275 277 276 276 280
226 218 215 221 234 223 232 236 234 230 233 236 235 239 248 250 251 269 261 267 270 278 284 281 283 281 279 279 280 283 282 278 279 280 277 275 272 268 269 270 274 276 276 276
225 216 217 224 227 229 231 230 230 241 233 237 242 259 267 269 273 259 262 270 272 273 278 279 279 276 276 277 282 283 284 283 280 284 276 271 270 268 264 268 273 275 277 278